Terminal Aerodrome Forecast
Issued by NWS

Home | Current Version | Previous Version | Text Only | Print | Product List | Glossary On
Versions: 1 2 3 4 5 6 7 8 9 10 11 12 13 14 15 16 17 18 19 20 21 22 23 24 25 26
000
FTUS41 KCAR 271700
TAFBHB
TAF
KBHB 271731Z 2718/2818 21008KT P6SM OVC060
     FM272200 22006KT P6SM BKN250
     FM280400 00000KT P6SM BKN110
     FM281200 33006KT P6SM SCT250
      AMD LTD TO CLD VIS AND WIND=

USA.gov is the U.S. government's official web portal to all federal, state and local government web resources and services.